Weather History for Juliana Airport, St. Martin

Change the Weather History Date:

Friday, August 9, 2013

  Actual Average Record
Temperature  
Mean Temperature 82 °F -  
Max Temperature 87 °F 87 °F 91 °F (2000)
Min Temperature 76 °F 77 °F 76 °F (2013)
Cooling Degree Days 16    
Growing Degree Days 32 (Base 50)    
Moisture  
Dew Point 75 °F    
Average Humidity 73    
Maximum Humidity 84    
Minimum Humidity 60    
Precipitation  
Precipitation 0.08 in 0.14 in - ()
Sea Level Pressure  
Sea Level Pressure 29.94 in    
Wind  
Wind Speed 13 mph ()    
Max Wind Speed 17 mph    
Max Gust Speed -    
Visibility 8.1 miles    
Events Rain , Thunderstorm    
Averages and records for this station are not official NWS values.
T = Trace of Precipitation, MM = Missing Value Source: Averaged Metar Reports

Daily Weather History Graph

Daily Weather History Graph

Search for Another Location

Airport:

Trip Planner

Search our weather history database for the weather conditions in past years. The results will help you decide how hot, cold, wet, or windy it might be!

Date:

Astronomy

Aug. 09, 2013 Rise Set
Actual Time 5:53 AM AST 6:42 PM AST
Civil Twilight 5:30 AM AST 7:05 PM AST
Nautical Twilight 5:03 AM AST 7:31 PM AST
Astronomical Twilight 4:36 AM AST 7:59 PM AST
Moon 8:03 AM AST (8/9) 8:25 PM AST (8/9)
Length of Visible Light 13h 34m
Length of Day
12h 49m
Waxing Crescent, 7% of the Moon is Illuminated
Aug 9
Waxing Crescent
Aug 14
First Quarter
Aug 20
Full
Aug 28
Last Quarter
Sep 5
New

Hourly Weather History & Observations

Time (AST) Temp. Heat Index Dew Point Humidity Pressure Visibility Wind Dir Wind Speed Gust Speed Precip Events Conditions
12:00 AM 82.4 °F 88.2 °F 73.4 °F 74% 29.92 in - North - - N/A   Mostly Cloudy
1:00 AM 80.6 °F 86.2 °F 75.2 °F 84% 29.92 in - North - - N/A   Partly Cloudy
2:00 AM 81 °F - 74 °F 75% 29.93 in 16 mi ENE 13.8 mph - -   Partly Cloudy
2:00 AM 82.4 °F 89.5 °F 75.2 °F 79% 29.92 in - North - - N/A   Scattered Clouds
3:00 AM 80.6 °F 85.4 °F 73.4 °F 79% 29.92 in 6.2 mi North - - N/A Rain Light Rain Showers
4:00 AM 77.0 °F - 71.6 °F 83% 29.92 in 6.2 mi North - - N/A   Scattered Clouds
5:00 AM 80 °F - 74 °F 76% 29.92 in 9 mi East 12.7 mph - - Thunderstorm Thunderstorm
5:00 AM 80.6 °F 85.4 °F 73.4 °F 79% 29.92 in 6.2 mi North - - N/A Thunderstorm Light Thunderstorm
6:00 AM 78.8 °F - 73.4 °F 83% 29.92 in 6.2 mi North - - N/A Rain Light Rain
7:00 AM 80.6 °F 85.4 °F 73.4 °F 79% 29.95 in 6.2 mi East 12.7 mph - N/A   Scattered Clouds
8:00 AM 82 °F - 74 °F 70% 29.95 in 25 mi East 17.3 mph - -   Partly Cloudy
8:00 AM 82.4 °F 88.2 °F 73.4 °F 74% 29.95 in 6.2 mi East 15.0 mph - N/A   Partly Cloudy
9:00 AM 84.2 °F 92.3 °F 75.2 °F 74% 29.95 in 6.2 mi East 15.0 mph - N/A   Scattered Clouds
10:00 AM 86.0 °F 95.1 °F 75.2 °F 70% 29.95 in 6.2 mi East 17.3 mph - N/A   Scattered Clouds
11:00 AM 87 °F - 76 °F 63% 29.96 in 25 mi East 17.3 mph - -  
11:00 AM 86.0 °F 96.9 °F 77.0 °F 74% 29.95 in 6.2 mi East 17.3 mph - N/A   Scattered Clouds
12:00 PM 87.8 °F 97.6 °F 75.2 °F 66% 29.95 in 6.2 mi East 17.3 mph - N/A   Scattered Clouds
1:00 PM 86.0 °F 96.9 °F 77.0 °F 74% 29.95 in 6.2 mi East 15.0 mph - N/A   Scattered Clouds
2:00 PM 87 °F - 75 °F 60% 29.95 in 16 mi East 15.0 mph - -   Partly Cloudy
2:00 PM 87.8 °F 97.6 °F 75.2 °F 66% 29.95 in 6.2 mi East 15.0 mph - N/A   Scattered Clouds
3:00 PM 87.8 °F 97.6 °F 75.2 °F 66% 29.92 in 6.2 mi East 12.7 mph - N/A   Scattered Clouds
4:00 PM 87.8 °F 97.6 °F 75.2 °F 66% 29.92 in 6.2 mi East 11.5 mph - N/A   Scattered Clouds
5:00 PM 85 °F - 75 °F 65% 29.92 in 16 mi East 15.0 mph - -   Mostly Cloudy
5:00 PM 86.0 °F 95.1 °F 75.2 °F 70% 29.92 in 6.2 mi East 15.0 mph - N/A   Mostly Cloudy
6:00 PM 84.2 °F 92.3 °F 75.2 °F 74% 29.92 in 6.2 mi East 15.0 mph - N/A   Scattered Clouds
7:00 PM 84.2 °F 92.3 °F 75.2 °F 74% 29.92 in 6.2 mi East 16.1 mph - N/A   Scattered Clouds
8:00 PM 83 °F - 74 °F 68% 29.96 in 16 mi East 15.0 mph - -  
8:00 PM 84.2 °F 90.9 °F 73.4 °F 70% 29.95 in 6.2 mi East 15.0 mph - N/A   Scattered Clouds
9:00 PM 84.2 °F 92.3 °F 75.2 °F 74% 29.98 in 6.2 mi East 10.4 mph - N/A   Scattered Clouds
10:00 PM 84.2 °F 92.3 °F 75.2 °F 74% 29.98 in 6.2 mi ENE 11.5 mph - N/A   Scattered Clouds
11:00 PM 83 °F - 74 °F 69% 29.99 in 16 mi ENE 11.5 mph - -   Partly Cloudy
11:00 PM 82.4 °F 89.5 °F 75.2 °F 79% 29.98 in 6.2 mi ENE 11.5 mph - N/A   Scattered Clouds